Starlink 11359

operational
NORAD ID: 61884 Int'l Des: 2024-204 Owner: SPXS Country: US Constellation: starlink
LEOCIRCULAR

About Starlink 11359

Description loading...

Live Position

Loading 3D Globe...

Upcoming Passes

Altitude History

Altitude vs Time

uPlot chart will show altitude changes over time

Two-Line Element Set

1 61884U 24204L 25257.94634224 -.00000562 00000-0 21397-6 0 9996
2 61884 53.1590 142.5034 0001006 87.0970 273.0163 15.69706486 49310
Epoch: Sep 14, 2025 • Age: 14 hours

Current Status

Altitude 360.6 km
Velocity 7.70 km/s
Sub-Earth Point 27.04°N, 106.22°E
Launch Date Nov 9, 2024
Age 0.8 years
Type internet

Technical Details

Classification Payload
Mass 960.00 kg
Dry Mass 910.00 kg
Total Mass 960.00 kg
Length 0.30 m
Diameter 4.10 m
Span 29.00 m
Shape Box + pan
Manufacturer SPXS
Bus Type Starlink V2MD
Phase Status In Orbit
Owner/State SPXS/US

Large Constellations

Loading constellations...